Location: Dreilärchen
(47.9312°N, 8.6113°E)
Time: 06:42:59
(UTC+00:00)

USA 307 - Visible Passes

Search period start: 06 October 2022 00:00
Search period end: 16 October 2022 00:00
Orbit: 542 x 545 km, 54.0° (Epoch: 03 October)

Date Brightness Start Highest point End Pass type
(mag) Time Alt. Az. Time Alt. Az. Time Alt. Az.
06 Oct 4.3 02:44:22 33° NNE 02:44:22 33° NNE 02:47:04 10° ENE visible
06 Oct 4.0 04:19:54 13° WNW 04:23:08 36° N 04:26:57 10° ENE visible
07 Oct 4.7 02:37:13 28° NE 02:37:13 28° NE 02:39:36 10° ENE visible
07 Oct 3.9 04:12:44 15° NW 04:15:42 38° N 04:19:34 10° E visible
08 Oct 4.9 02:30:02 25° NE 02:30:02 25° NE 02:32:05 10° ENE visible
08 Oct 3.8 04:05:33 18° NW 04:08:14 40° NNE 04:12:08 10° E visible
09 Oct 5.2 02:22:50 21° NE 02:22:50 21° NE 02:24:34 10° ENE visible
09 Oct 3.7 03:58:22 21° NW 04:00:43 44° NNE 04:04:40 10° E visible
10 Oct 5.5 02:15:40 18° NE 02:15:40 18° NE 02:17:00 10° ENE visible
10 Oct 3.5 03:51:11 26° NW 03:53:09 48° NNE 03:57:09 10° E visible
11 Oct 5.7 02:08:30 15° ENE 02:08:30 15° ENE 02:09:26 10° ENE visible
11 Oct 3.3 03:44:01 34° NW 03:45:32 55° NNE 03:49:35 10° E visible
12 Oct 5.9 02:01:22 13° ENE 02:01:22 13° ENE 02:01:49 10° ENE visible
12 Oct 3.1 03:36:54 46° NNW 03:37:52 63° NNE 03:41:57 10° ESE visible
13 Oct 2.8 03:29:49 68° NNW 03:30:09 73° NNE 03:34:15 10° ESE visible
13 Oct 4.0 05:05:45 10° WNW 05:09:11 26° SW 05:12:36 10° S visible
14 Oct 2.9 03:22:49 70° ESE 03:22:49 70° ESE 03:26:29 10° ESE visible
14 Oct 4.3 04:58:22 11° W 05:01:17 21° SW 05:04:21 10° S visible
15 Oct 3.8 03:15:55 40° SE 03:15:55 40° SE 03:18:38 10° SE visible
15 Oct 4.5 04:51:28 13° W 04:53:19 17° SW 04:55:56 10° S visible
